ICEYE-X19

导读 | 星芒AI

ICEYE-X19 是 ICEYE 公司研发的一颗合成孔径雷达(SAR)卫星,具备高分辨率和全天候成像能力。该卫星采用小型卫星平台,支持频繁发射和快速部署,可提供实时地球观测数据。ICEYE-X19 用于灾害监测、环境管理、安全与防务等领域,增强全球对地观测能力。其先进雷达技术可在云层和夜间条件下获取清晰图像,提升数据可用性与响应速度。

基本信息
目录编号:
52758
目录名称:
ICEYE-X19
国际标识:
2022-057AC
轨道中心:
EARTH
卫星名称:
ICEYE-X19
卫星全名:
--
卫星状态:
已陨落 最后检测时间 2025-03-08
发射日期:
2022-05-25 UTC
国别 :
巴西 (BR)
星等 :
--
轨道信息
数据来源 国际轨道数据
星历时间: 2025-03-03T19:17:58+0800
轨道信息已过期239天
半长轴: 6535.984km
偏心率: 0.0011749
轨道倾角: 97.532°
近地点辐角 274.115°
升交点赤经 207.029°
平近点角 85.880°
近地点: 150.169km
远地点: 165.529km
周期: 87.645分钟
每日圈数: 16.429954
详细信息
使用方式:
暂无